sat.trackr.live / text

‹ back to catalog

ZHIHUI TIANWANG-1 01A

NORAD 59705 · 2024-087A

PAYLOAD ACTIVE UNKNOWN

§ Identity

Operator
Country
PRC
Launch date
2024-05-09
Launch site
XICLF
Launch vehicle
Mass (kg)
RCS (m²)

External: N2YO · Heavens-Above · Gunter

§ Orbital elements

Epoch: 2026-09-20T20:32:11.012928Z

Period
717.98 min
Inclination
53.1269°
Eccentricity
0.0029085
Mean motion
2.00562101 rev/d
Perigee alt
20,105.1 km
Apogee alt
20,259.6 km
Semi-major
26,560.5 km
B*
0.0000e+0
RAAN
166.6409°
Arg perigee
203.2381°
Mean anomaly
156.6723°
Rev number
1,722

§ Raw data

ZHIHUI TIANWANG-1 01A1 59705U 24087A   26263.85568302 -.00000025  00000+0  00000+0 0  99992 59705  53.1269 166.6409 0029085 203.2381 156.6723  2.00562101 17228

JSON: /api/v1/satellites/59705 · /tle

For live sub-satellite position, see the globe view (requires WebGL).

§ Visibility from observer

Set your observer location to see the next 7 days of passes ≥ 10°. The values pass through the URL so the page stays shareable.

No JS? Fill the form by hand. The geolocation button needs JavaScript.